Content
SEND FEEDBACK

Daily
Averages
Monthly
Summary
United States of America

ROSEDALE, MISSISSIPPI


Home > North America > United States > Mississippi
Elevation: 144 feet     Latitude: 33 51N     Longitude: 091 01W

WEATHER
 
SELECT A DAY
Number of Records: 169,238;   Date Range: 1/1/95 - 7/20/14
 
SHARE

PRINT THIS DATA

[ ← Previous Day ]
WEATHER ALMANAC - JANUARY 31, 2013
[ Next Day → ]
[ °C ]   °F
Weather ElementAverageHighLow
Temperature45.2 °F57 °F (2:53 pm)33.1 °F (4:53 am)
Dewpoint31 °F34 °F (1:53 pm)28 °F (2:53 am)
Humidity60.4 %85 % (5:53 am)37 % (3:53 pm)
Barometer30.20 in30.29 in (10:53 pm)30.14 in (1:53 am)
Wind Speed9.7 mph18.4 mph (2:53 pm)
Wind Gust24.2 mph (2:53 pm)
Weather ElementAverage
Visibility10 mi
Wind DirectionWSW (231.9 °)

Weather ElementTotal
Precipitation---
Heating Degree Days20 (Base 65)
Averaged from 21 records on January 31, 2013
WEATHER CONDITIONS BREAKOUT
WIND DIRECTION BREAKOUT
WEATHER BY HOUR - JANUARY 31, 2013
[ °C ]   °F
Local TimeTemperatureDewpointHumidityBarometerVisibilityWind DirectionWind SpeedGust SpeedPrecipitationEventsConditions
1:53 AM35.1 °F28.9 °F78 %30.14 in10.0 miWest (260°)5.8 mphClear
2:53 AM35.1 °F28.0 °F76 %30.16 in10.0 miSW (220°)6.9 mphClear
3:53 AM34.0 °F28.9 °F82 %30.17 in10.0 miSW (230°)6.9 mphClear
4:53 AM33.1 °F28.0 °F82 %30.17 in10.0 miSW (220°)5.8 mphClear
5:53 AM34.0 °F30.0 °F85 %30.18 in10.0 miSSW (200°)3.5 mphClear
6:53 AM33.1 °F28.9 °F85 %30.21 in10.0 miWSW (250°)5.8 mphClear
7:53 AM37.0 °F32.0 °F82 %30.21 in10.0 miNW (310°)4.6 mphClear
9:53 AM46.0 °F30.9 °F56 %30.27 in10.0 miWSW (240°)8.1 mphClear
10:53 AM50.0 °F30.9 °F48 %30.25 in10.0 miSW (220°)10.4 mphClear
11:53 AM53.1 °F30.0 °F41 %30.23 in10.0 miSW (230°)11.5 mphClear
12:53 PM55.0 °F32.0 °F42 %30.20 in10.0 miSSW (210°)15.0 mphClear
1:53 PM55.9 °F34.0 °F44 %30.18 in10.0 miSW (220°)17.3 mphClear
2:53 PM57.0 °F33.1 °F40 %30.17 in10.0 miSW (220°)18.4 mph24.2 mphClear
3:53 PM57.0 °F30.9 °F37 %30.16 in10.0 miSW (220°)13.8 mphClear
4:53 PM55.9 °F30.0 °F37 %30.17 in10.0 miSW (220°)11.5 mphClear
5:53 PM51.1 °F30.9 °F46 %30.17 in10.0 miSSW (210°)11.5 mphClear
6:53 PM45.0 °F32.0 °F60 %30.18 in10.0 miSSW (200°)8.1 mphClear
7:53 PM46.0 °F32.0 °F58 %30.22 in10.0 miSW (220°)9.2 mphClear
8:53 PM44.1 °F32.0 °F63 %30.24 in10.0 miSW (220°)8.1 mphClear
9:53 PM45.0 °F34.0 °F65 %30.24 in10.0 miSW (220°)8.1 mphClear
10:53 PM46.9 °F34.0 °F61 %30.29 in10.0 miNNW (330°)13.8 mph24.2 mphClear
Hourly data recorded from KGLH, located miles away from Rosedale, Mississippi







STORIES FROM OUR PARTNERS